Demopolis Municipal Airport, AL

3:37 PM CST on December 09, 2019 (GMT -0600)
Demopolis Municipal Airport

Weather History for KDYA - October, 2019

Change the Weather History Date:

Sunday, October 20, 2019

  Actual Average (WUND) Record (WUND)
Temperature  
Mean Temperature 69 °F -  
Max Temperature 77 °F - - (-1)
Min Temperature 61 °F - - (-1)
Cooling Degree Days 4    
Growing Degree Days 19 (Base 50)    
Moisture  
Dew Point 62 °F    
Average Humidity 85    
Maximum Humidity 100    
Minimum Humidity 60    
Precipitation  
Precipitation 0.00 in - - ()
Sea Level Pressure  
Sea Level Pressure 29.90 in    
Wind  
Wind Speed 0 mph ()    
Max Wind Speed 0 mph    
Max Gust Speed -    
Visibility 8.9 miles    
Events      
Averages and records for this station are not official NWS values.
T = Trace of Precipitation, MM = Missing Value Source: Averaged Metar Reports

Daily Weather History Graph

Daily Weather History Graph

Search for Another Location

Airport or City:

Astronomy

Oct. 20, 2019 Rise Set
Actual Time 6:59 AM CDT 6:13 PM CDT
Civil Twilight 6:34 AM CDT 6:38 PM CDT
Nautical Twilight 6:05 AM CDT 7:07 PM CDT
Astronomical Twilight 5:37 AM CDT 7:35 PM CDT
Moon 11:35 PM CDT (10/20) 1:13 PM CDT (10/20)
Length of Visible Light 12h 04m
Length of Day
11h 14m
Waning Gibbous, 59% of the Moon is Illuminated
Oct 20
Waning Gibbous
Oct 21
Last Quarter
Oct 27
New
Nov 4
First Quarter
Nov 12
Full

Hourly Weather History & Observations

Time (CDT) Temp. Dew Point Humidity Pressure Visibility Wind Dir Wind Speed Gust Speed Precip Events Conditions
12:15 AM 63.0 °F 59.5 °F 89% 29.82 in 10.0 mi Calm Calm - N/A   Overcast
12:35 AM 62.8 °F 59.4 °F 89% 29.82 in 10.0 mi Calm Calm - N/A   Overcast
12:55 AM 62.8 °F 59.4 °F 89% 29.83 in 10.0 mi Calm Calm - N/A   Overcast
1:15 AM 62.8 °F 59.5 °F 89% 29.84 in 10.0 mi Calm Calm - N/A   Overcast
1:35 AM 62.6 °F 59.5 °F 90% 29.84 in 10.0 mi Calm Calm - N/A   Overcast
1:55 AM 62.6 °F 59.5 °F 90% 29.84 in 10.0 mi Calm Calm - N/A   Overcast
2:15 AM 62.6 °F 59.4 °F 89% 29.84 in 10.0 mi Calm Calm - N/A   Overcast
2:35 AM 62.6 °F 59.4 °F 89% 29.84 in 10.0 mi Calm Calm - N/A   Overcast
2:55 AM 62.2 °F 59.4 °F 90% 29.84 in 10.0 mi Calm Calm - N/A   Overcast
3:15 AM 62.2 °F 59.7 °F 91% 29.84 in 10.0 mi Calm Calm - N/A   Overcast
3:35 AM 62.4 °F 59.9 °F 91% 29.84 in 10.0 mi Calm Calm - N/A   Overcast
3:55 AM 62.2 °F 59.9 °F 92% 29.85 in 10.0 mi Calm Calm - N/A   Overcast
4:15 AM 62.1 °F 59.9 °F 93% 29.86 in 10.0 mi Calm Calm - N/A   Overcast
4:35 AM 62.1 °F 59.9 °F 93% 29.86 in 10.0 mi Calm Calm - N/A   Overcast
4:55 AM 62.1 °F 59.9 °F 93% 29.86 in 10.0 mi Calm Calm - N/A   Overcast
5:15 AM 61.9 °F 59.7 °F 93% 29.87 in 10.0 mi Calm Calm - N/A   Overcast
5:35 AM 61.7 °F 59.9 °F 94% 29.88 in 10.0 mi Calm Calm - N/A   Overcast
5:55 AM 61.7 °F 59.9 °F 94% 29.89 in 5.0 mi Calm Calm - N/A   Overcast
6:15 AM 61.7 °F 60.3 °F 95% 29.89 in 5.0 mi Calm Calm - N/A   Overcast
6:35 AM 61.7 °F 60.3 °F 95% 29.90 in 3.0 mi Calm Calm - N/A   Overcast
6:55 AM 61.7 °F 60.8 °F 97% 29.90 in 2.5 mi Calm Calm - N/A   Overcast
7:15 AM 61.7 °F 61.0 °F 97% 29.91 in 4.0 mi Calm Calm - N/A   Overcast
7:35 AM 61.7 °F 61.2 °F 98% 29.91 in 5.0 mi Calm Calm - N/A   Overcast
7:55 AM 61.7 °F 61.7 °F 100% 29.92 in 10.0 mi Calm Calm - N/A   Overcast
8:15 AM 61.7 °F 61.7 °F 100% 29.93 in 2.5 mi Calm Calm - N/A   Overcast
8:35 AM 61.9 °F 61.9 °F 100% 29.94 in 2.5 mi Calm Calm - N/A   Overcast
8:55 AM 62.2 °F 62.2 °F 100% 29.94 in 2.5 mi Calm Calm - N/A   Overcast
9:15 AM 62.6 °F 62.6 °F 100% 29.95 in 3.0 mi Calm Calm - N/A   Overcast
9:55 AM 63.0 °F 63.0 °F 100% 29.96 in 2.5 mi Calm Calm - N/A   Overcast
10:15 AM 63.7 °F 63.5 °F 99% 29.96 in 5.0 mi Calm Calm - N/A   Overcast
10:35 AM 64.4 °F 63.3 °F 96% 29.96 in 10.0 mi Calm Calm - N/A   Overcast
10:55 AM 64.9 °F 63.0 °F 93% 29.96 in 10.0 mi Calm Calm - N/A   Overcast
11:15 AM 66.2 °F 63.3 °F 90% 29.96 in 10.0 mi Calm Calm - N/A   Overcast
11:35 AM 68.0 °F 63.5 °F 85% 29.96 in 10.0 mi Calm Calm - N/A   Overcast
11:55 AM 67.8 °F 63.1 °F 85% 29.97 in 10.0 mi Calm Calm - N/A   Overcast
12:15 PM 68.2 °F 63.5 °F 85% 29.96 in 10.0 mi Calm Calm - N/A   Overcast
12:35 PM 69.1 °F 63.9 °F 83% 29.95 in 10.0 mi Calm Calm - N/A   Overcast
12:55 PM 70.3 °F 63.7 °F 79% 29.94 in 10.0 mi Calm Calm - N/A   Mostly Cloudy
1:15 PM 71.6 °F 62.8 °F 74% 29.93 in 10.0 mi Calm Calm - N/A   Mostly Cloudy
1:35 PM 73.6 °F 63.1 °F 70% 29.94 in 10.0 mi Calm Calm - N/A   Scattered Clouds
1:55 PM 74.5 °F 62.4 °F 66% 29.93 in 10.0 mi Calm Calm - N/A   Scattered Clouds
2:15 PM 75.7 °F 62.8 °F 64% 29.91 in 10.0 mi Calm Calm - N/A   Scattered Clouds
2:35 PM 77.0 °F 63.1 °F 62% 29.92 in 10.0 mi Calm Calm - N/A   Clear
2:55 PM 76.5 °F 62.6 °F 62% 29.91 in 10.0 mi Calm Calm - N/A   Scattered Clouds
3:15 PM 76.1 °F 63.0 °F 64% 29.91 in 10.0 mi Calm Calm - N/A   Overcast
3:35 PM 76.1 °F 63.7 °F 65% 29.91 in 10.0 mi Calm Calm - N/A   Overcast
3:55 PM 76.8 °F 62.8 °F 62% 29.91 in 10.0 mi Calm Calm - N/A   Overcast
4:15 PM 76.6 °F 61.9 °F 60% 29.91 in 10.0 mi Calm Calm - N/A   Overcast
4:35 PM 77.2 °F 62.8 °F 61% 29.91 in 10.0 mi Calm Calm - N/A   Mostly Cloudy
4:55 PM 76.3 °F 62.4 °F 62% 29.90 in 10.0 mi Calm Calm - N/A   Scattered Clouds
5:15 PM 75.6 °F 62.8 °F 64% 29.90 in 10.0 mi Calm Calm - N/A   Clear
5:35 PM 75.6 °F 63.0 °F 65% 29.90 in 10.0 mi Calm Calm - N/A   Clear
5:55 PM 73.6 °F 63.5 °F 71% 29.90 in 10.0 mi Calm Calm - N/A   Clear
6:15 PM 72.7 °F 63.9 °F 74% 29.90 in 10.0 mi Calm Calm - N/A   Clear
6:35 PM 71.1 °F 64.4 °F 79% 29.90 in 10.0 mi Calm Calm - N/A   Clear
6:55 PM 70.0 °F 64.4 °F 82% 29.90 in 10.0 mi Calm Calm - N/A   Clear
7:15 PM 68.7 °F 64.4 °F 86% 29.90 in 10.0 mi Calm Calm - N/A   Clear
7:35 PM 68.9 °F 64.0 °F 84% 29.90 in 10.0 mi Calm Calm - N/A   Clear
7:55 PM 68.2 °F 64.0 °F 87% 29.91 in 10.0 mi Calm Calm - N/A   Clear
8:15 PM 68.2 °F 64.0 °F 87% 29.91 in 10.0 mi Calm Calm - N/A   Clear
8:35 PM 68.4 °F 63.9 °F 85% 29.91 in 10.0 mi Calm Calm - N/A   Clear
9:15 PM 67.3 °F 63.1 °F 87% 29.91 in 10.0 mi Calm Calm - N/A   Clear
9:35 PM 66.7 °F 63.1 °F 88% 29.92 in 10.0 mi Calm Calm - N/A   Clear
9:55 PM 65.1 °F 62.6 °F 92% 29.92 in 10.0 mi Calm Calm - N/A   Clear
10:15 PM 66.2 °F 63.1 °F 90% 29.93 in 10.0 mi Calm Calm - N/A   Clear
10:35 PM 65.8 °F 62.6 °F 89% 29.93 in 10.0 mi Calm Calm - N/A   Clear
10:55 PM 65.8 °F 62.6 °F 89% 29.93 in 10.0 mi Calm Calm - N/A   Clear
11:15 PM 66.2 °F 62.8 °F 89% 29.93 in 10.0 mi Calm Calm - N/A   Clear
11:35 PM 66.2 °F 62.8 °F 89% 29.92 in 10.0 mi Calm Calm - N/A   Clear
11:55 PM 66.6 °F 62.8 °F 88% 29.91 in 10.0 mi Calm Calm - N/A   Clear